Theta_e
310 309 310 310 308 313 311 316 318 320 321 320 321 325 327 327 327 326 325 325 323 324 322 321 318 320 327 328 324 324 327 328 326 324 323 317 321 323 324 328 330 331 329 328 331
309 310 310 311 308 311 311 312 315 318 319 321 321 322 326 326 324 326 326 325 325 325 325 323 321 320 321 328 328 324 325 327 324 320 317 316 319 323 326 329 330 329 330 329 331
308 309 310 309 309 307 311 309 312 317 319 320 321 322 323 325 325 325 325 325 324 325 324 324 322 322 324 327 328 327 327 324 325 319 317 317 318 320 324 325 326 327 328 329 331
309 307 309 309 307 307 309 311 308 311 317 319 319 321 322 322 324 321 323 324 326 325 326 325 323 324 321 326 327 328 328 326 323 319 317 316 316 316 321 324 324 325 326 327 330
309 308 309 308 308 308 308 311 310 307 310 314 318 318 321 323 321 322 322 323 325 324 324 324 323 323 320 322 325 326 326 328 327 326 327 326 317 315 316 319 322 321 325 327 328
309 308 309 307 308 308 308 311 311 309 308 309 312 317 319 322 321 320 320 323 324 324 324 324 323 323 322 322 322 324 326 326 327 328 327 323 321 323 318 318 318 322 325 326 327
310 308 307 307 308 307 308 309 310 310 308 308 311 315 316 319 319 321 320 320 322 324 324 324 324 323 323 320 322 324 325 322 323 326 327 321 325 317 327 327 322 320 325 327 327
310 308 307 307 307 308 306 306 308 310 310 308 310 313 313 315 318 320 320 320 319 320 324 323 324 323 323 322 323 324 323 325 323 324 327 324 331 326 326 326 327 324 323 327 327
311 309 308 308 307 308 305 305 306 308 309 309 310 311 311 311 314 317 320 321 320 319 320 324 324 324 323 320 323 322 322 323 323 322 322 324 329 328 327 326 325 326 322 324 326
311 310 308 308 308 308 307 305 305 305 307 310 309 310 309 310 310 315 318 321 321 322 322 321 322 324 321 322 325 320 323 321 323 321 319 318 327 326 322 324 325 324 322 321 324
309 310 307 309 309 309 307 307 306 306 308 309 309 309 311 308 309 310 312 320 320 321 322 321 323 325 324 322 318 317 319 320 321 320 319 320 322 323 324 319 316 322 323 322 321
308 310 307 310 308 308 307 306 306 306 308 309 309 311 311 310 312 311 313 318 319 321 321 322 324 322 322 320 321 319 321 321 321 318 318 320 320 319 318 317 319 319 320 320 323
310 309 307 309 308 308 306 306 306 305 306 307 309 309 311 310 312 312 313 316 318 320 320 321 321 319 321 322 323 323 322 320 321 317 316 317 320 319 316 318 319 320 323 323 323
308 310 307 308 308 307 306 306 306 307 304 305 307 308 309 310 310 312 313 315 317 319 319 320 318 319 321 322 322 324 319 320 321 321 323 318 325 320 318 318 316 319 320 324 322
304 308 307 308 308 307 306 306 305 306 301 302 308 308 309 309 309 310 312 314 315 317 319 318 320 321 323 322 321 323 319 320 321 321 320 320 322 319 318 320 320 317 319 320 323
304 307 308 307 308 307 306 305 306 304 303 303 308 309 309 310 310 312 314 313 314 315 316 318 317 319 318 319 320 318 320 320 320 322 323 318 321 321 320 320 321 320 322 325 324
304 307 308 307 307 306 305 305 305 302 297 307 309 309 307 308 309 311 312 314 315 315 317 316 319 316 318 321 320 320 321 323 324 326 321 315 319 320 318 317 317 317 322 323 323
308 307 308 306 307 305 304 301 295 295 298 305 310 309 308 308 308 310 312 312 312 314 317 316 317 319 319 320 321 322 320 321 322 320 317 315 322 320 318 319 320 320 320 320 320
307 309 306 306 306 304 303 301 297 294 301 309 310 310 310 309 307 308 310 311 311 313 317 319 318 316 317 316 318 321 322 316 314 298 312 316 315 312 313 314 313 314 318 321 323
307 305 305 305 305 304 302 298 296 300 304 306 305 307 306 310 311 308 308 308 311 311 313 318 320 317 316 317 316 319 319 322 318 315 317 317 315 321 317 319 316 314 314 319 322
304 304 306 304 304 302 301 297 297 304 304 304 305 308 310 309 310 311 311 308 308 310 311 317 317 319 317 320 321 320 320 319 317 313 316 318 317 310 317 318 318 317 318 319 321
303 303 305 304 304 300 300 298 301 303 304 303 304 304 307 308 310 311 309 310 310 310 312 312 316 318 319 315 317 318 318 319 321 318 313 313 317 310 310 312 310 314 315 319 319
301 301 304 303 302 303 296 300 302 303 303 304 303 304 304 307 307 309 310 309 310 311 312 312 314 318 319 316 314 319 317 319 318 313 318 321 319 308 305 304 306 309 314 315 318
302 302 300 302 296 301 296 298 300 303 303 303 303 303 305 306 307 307 308 310 310 311 311 313 313 315 319 320 318 320 319 318 319 320 319 318 318 315 313 307 305 309 312 312 316
302 300 301 302 292 295 293 296 299 301 302 303 303 303 303 303 305 306 306 306 306 312 311 313 316 315 313 314 317 319 319 318 319 319 319 318 317 317 313 312 306 310 308 309 312
299 299 298 298 296 296 293 291 297 293 301 302 301 303 303 302 302 303 305 306 307 310 312 314 316 316 315 315 316 319 319 318 319 319 319 318 317 316 316 317 308 311 310 309 311
299 300 300 298 290 293 293 291 296 299 300 302 302 302 302 302 302 303 303 303 305 307 310 313 315 314 318 315 315 319 318 319 319 319 319 320 319 317 311 307 311 315 311 311 312
Wind_Speed
33 31 32 30 33 30 31 29 28 28 28 28 28 29 28 26 18 25 28 24 23 14 16 14 11 9 8 8 9 14 3 4 5 3 3 4 1 1 4 8 9 10 5 6 19
35 33 33 32 32 32 30 31 28 26 27 28 27 29 25 28 28 24 31 27 16 13 17 17 13 10 7 8 5 3 5 9 6 1 3 4 1 3 4 6 8 8 10 8 23
38 36 35 36 34 34 31 31 31 27 26 27 27 25 25 22 25 18 33 27 19 18 12 15 12 10 4 8 7 2 4 4 4 5 3 4 2 1 4 4 12 16 16 15 26
42 38 36 35 36 34 33 30 32 31 27 26 26 26 25 24 10 13 20 30 29 22 16 19 15 8 5 5 7 5 9 6 4 5 3 3 2 1 8 6 6 14 15 18 27
44 41 37 37 36 34 34 30 29 31 30 28 25 25 24 26 18 4 15 23 21 23 18 19 19 10 6 5 6 3 5 8 16 10 9 8 4 4 11 9 14 9 16 20 26
47 43 41 38 37 35 34 32 28 28 28 28 26 24 27 22 25 27 9 19 27 25 26 22 14 13 9 7 6 6 11 3 6 13 10 3 5 3 4 1 9 11 16 22 26
51 46 43 39 38 36 34 31 29 25 26 27 24 26 25 27 13 26 26 27 21 31 25 27 14 16 10 5 8 3 1 3 7 6 6 6 12 10 26 20 14 13 17 22 26
53 49 43 42 40 37 35 32 29 25 23 23 22 22 15 31 18 18 23 16 24 22 30 27 24 19 6 6 4 4 2 1 3 8 7 9 17 18 16 19 25 21 20 24 28
53 49 44 43 43 38 34 30 28 27 22 21 21 13 9 20 31 20 26 20 24 25 26 30 27 7 7 5 2 4 4 4 6 11 2 8 8 20 24 20 24 26 25 26 29
50 48 47 45 43 39 34 28 22 22 21 20 15 7 16 29 32 38 20 23 19 28 27 17 10 5 4 6 12 6 5 4 6 4 4 3 17 12 5 22 30 29 28 29 31
53 52 50 47 46 41 35 31 23 11 31 15 14 3 2 27 20 29 34 25 23 19 9 14 7 8 17 17 2 6 5 9 3 6 5 10 16 15 22 12 14 25 33 34 35
51 53 51 49 48 44 40 41 40 15 15 13 7 6 15 19 12 25 33 21 18 18 13 6 15 16 10 10 7 3 4 4 3 2 5 6 14 12 12 13 27 33 34 32 39
43 61 53 51 50 46 47 44 35 19 7 21 13 18 7 5 8 24 33 27 17 18 17 16 22 16 10 10 14 13 15 3 3 3 3 6 14 13 9 26 30 33 39 39 42
42 62 57 54 52 51 50 39 35 18 4 4 13 10 23 7 5 14 30 22 9 22 20 17 17 17 17 19 15 21 6 6 5 1 4 5 7 6 6 16 10 31 38 45 44
48 69 58 62 54 54 50 38 35 14 3 6 10 11 16 12 10 12 20 29 18 11 6 12 14 17 21 24 19 11 10 6 1 2 3 4 5 7 2 8 12 20 35 38 42
53 57 63 57 45 45 47 38 26 4 7 5 11 14 11 15 4 6 19 27 9 7 11 12 3 12 9 8 17 8 6 4 2 1 9 16 11 9 9 12 10 10 28 30 32
47 67 66 60 49 52 51 41 5 5 2 6 7 14 17 12 11 6 15 14 14 14 17 20 10 7 13 9 15 17 10 3 6 6 12 4 10 19 7 9 8 10 26 27 26
42 70 61 54 51 52 52 11 5 4 7 4 7 14 15 9 14 9 9 15 19 15 4 17 13 15 17 14 10 27 15 5 8 6 8 5 10 6 12 28 32 29 26 19 17
51 57 53 50 55 56 42 14 8 7 8 9 8 10 8 9 8 10 10 15 13 27 17 7 17 17 11 5 15 12 11 11 5 2 2 5 9 7 11 14 15 21 28 35 28
50 50 46 54 58 54 17 9 5 6 8 4 5 4 7 17 9 19 13 14 15 19 25 4 5 18 10 11 6 12 16 11 3 4 5 6 7 12 4 20 12 12 24 34 32
52 18 51 57 54 35 16 7 4 5 6 5 5 5 3 7 12 12 8 13 21 14 20 6 4 8 11 16 20 8 12 7 6 5 5 8 11 8 17 18 16 19 31 36 34
19 6 51 58 14 8 12 7 5 6 2 4 4 4 5 7 3 11 11 8 15 18 17 21 3 3 24 6 19 23 8 18 9 13 5 0 14 1 9 8 6 16 21 31 27
12 18 44 46 7 14 1 4 3 5 5 3 3 3 1 4 3 7 6 7 13 9 15 9 9 9 4 4 3 17 15 23 13 3 18 13 21 3 2 7 13 17 19 19 23
20 6 11 17 3 14 6 4 4 5 4 5 5 5 4 2 2 2 4 3 14 16 29 12 12 15 13 13 6 23 29 26 27 15 22 23 36 17 5 6 8 13 19 19 23
11 5 10 11 2 10 5 5 5 5 2 5 3 4 7 4 5 8 6 3 5 11 15 16 18 23 31 26 14 18 24 28 25 31 21 30 31 27 11 11 9 16 16 13 18
9 9 14 8 14 9 2 4 8 1 6 2 4 9 9 8 10 3 1 7 9 7 7 14 16 18 27 21 29 24 24 27 26 30 28 30 29 24 19 28 17 21 18 20 21
18 27 16 11 4 5 5 6 7 8 4 7 12 5 9 11 14 20 23 19 16 13 8 10 15 10 23 29 18 26 31 32 29 34 32 29 39 17 7 10 25 33 27 28 30
Wind_Direction
240 237 232 233 223 226 225 223 223 220 218 216 217 217 219 197 206 204 210 210 212 207 204 202 194 191 182 157 143 148 140 225 215 207 255 351 306 156 190 157 176 194 220 228 183
236 236 230 231 225 224 224 222 220 216 214 213 211 214 218 225 228 229 218 210 213 207 199 203 187 172 161 154 153 172 177 217 216 189 238 326 348 189 170 166 218 214 214 212 185
232 229 232 227 229 223 223 221 221 213 208 209 209 209 212 213 216 218 219 215 216 204 221 209 186 176 160 160 158 172 209 191 241 218 216 265 134 224 167 226 224 221 209 199 190
233 226 228 225 226 222 221 219 218 219 210 207 206 204 201 212 237 252 237 222 230 213 218 202 187 172 146 166 165 145 249 228 197 214 203 242 296 359 214 234 271 247 232 209 196
232 227 223 224 223 221 219 217 214 213 210 214 208 197 190 203 214 144 220 217 206 200 207 203 187 167 173 170 139 163 218 239 231 244 270 266 249 228 257 272 269 272 220 217 206
229 226 220 220 219 218 215 214 211 207 207 208 212 200 196 218 218 219 216 199 207 204 214 221 208 186 171 170 185 212 223 247 262 257 253 244 239 278 214 359 266 250 224 216 213
226 221 220 217 216 213 212 211 210 203 202 203 203 206 210 216 224 224 232 225 228 214 207 221 221 195 164 145 187 160 252 344 247 242 236 229 265 213 243 252 272 256 230 221 220
222 218 217 214 211 210 211 210 206 200 198 196 199 206 223 219 212 196 209 208 223 225 221 222 223 209 185 125 82 122 103 220 262 182 244 192 255 253 248 239 251 254 241 229 224
220 217 215 212 208 206 206 201 200 201 195 190 192 189 222 224 215 202 204 203 213 210 226 224 222 186 166 116 116 224 197 190 305 206 191 191 262 258 246 246 242 243 245 237 234
224 214 213 208 204 197 194 188 180 181 181 186 196 181 231 214 216 209 206 200 196 204 201 212 214 170 142 177 212 196 187 183 205 238 219 231 250 268 256 228 235 238 238 239 239
222 208 206 203 199 191 183 164 156 177 186 181 192 215 227 212 213 212 211 202 203 192 199 172 217 223 196 206 163 163 183 199 195 218 186 221 243 245 251 244 246 244 240 240 243
209 208 202 198 194 189 183 177 175 184 179 192 203 156 119 174 176 209 205 193 199 219 184 193 224 227 201 199 213 180 200 222 293 197 191 277 264 246 248 245 244 241 246 248 246
197 201 197 194 190 185 188 188 168 141 138 211 191 210 183 157 187 206 194 201 202 209 206 216 223 221 221 196 207 224 220 191 230 7 255 334 273 258 243 244 247 248 252 255 248
210 203 192 186 183 182 189 179 164 151 103 219 206 224 220 162 230 208 203 191 218 215 209 220 226 195 209 218 199 227 153 167 211 244 254 168 285 259 236 242 226 235 237 245 245
215 191 185 186 175 179 179 169 169 159 110 195 176 200 194 183 143 206 206 203 220 203 185 206 198 196 201 211 193 227 170 180 149 269 321 243 280 273 252 243 240 230 234 241 246
220 184 183 176 175 174 171 161 155 117 230 172 149 171 157 197 178 141 182 203 222 244 259 252 157 216 195 181 178 153 106 98 98 25 270 247 231 231 227 222 254 227 241 245 250
204 180 179 171 168 173 161 153 136 183 279 179 176 176 177 179 193 144 191 194 198 195 218 226 216 211 157 182 173 183 160 175 211 197 240 190 206 245 246 251 233 229 247 248 251
191 176 167 168 167 164 153 143 123 191 193 232 160 168 186 144 202 165 155 208 216 215 212 217 219 215 184 197 181 190 176 163 189 189 257 128 238 247 232 248 248 248 248 248 256
177 163 152 159 169 158 155 178 188 179 160 161 150 165 179 186 141 193 219 213 215 221 211 190 224 171 205 174 159 191 202 183 112 40 53 209 276 285 263 263 258 250 251 255 250
156 143 148 160 165 159 161 172 147 161 124 150 152 144 174 177 162 181 184 227 221 224 216 204 256 189 189 189 224 187 187 188 145 175 243 243 258 236 255 244 245 243 238 245 241
134 126 150 159 157 157 177 180 150 150 118 137 147 134 106 177 185 183 218 236 200 206 195 229 241 189 169 196 188 178 187 200 177 164 200 255 255 200 213 235 228 240 240 239 241
129 102 151 152 146 170 184 154 131 135 114 98 97 93 143 139 187 212 222 211 197 196 204 212 250 230 212 173 224 205 191 191 201 211 223 112 261 248 244 275 319 277 262 252 248
98 108 146 158 152 172 119 107 124 131 150 134 113 106 135 139 148 188 220 263 276 170 214 186 218 261 182 242 204 204 205 199 213 61 219 228 259 219 261 293 283 268 272 264 243
124 122 118 162 123 154 137 145 104 96 122 118 121 110 112 162 227 293 228 245 218 241 226 199 226 226 242 221 170 207 206 199 204 211 224 224 247 241 264 264 296 270 259 261 226
120 111 147 165 222 132 102 129 120 138 89 132 70 153 147 165 199 230 215 287 266 243 236 214 237 226 236 254 203 208 211 209 208 220 214 236 240 244 241 267 260 277 271 248 230
110 135 97 89 113 116 128 215 160 248 137 178 149 189 180 191 194 159 283 216 243 209 204 216 229 232 245 232 237 222 214 209 214 226 232 248 253 243 230 241 248 255 249 248 236
118 132 114 133 90 99 185 176 182 130 198 167 192 171 210 238 251 258 265 265 259 282 273 240 233 212 242 221 223 231 208 211 216 222 215 225 233 221 191 215 231 247 247 239 236